[[{"header":{"parameterUnit":"m.s-1","parameterCategory":1,"la1":30.2991,"la2":30.254,"lo1":-89.0895,"lo2":-89.0444,"dy":0.0017,"dx":0.0017,"nx":28,"ny":28,"refTime":"2023-07-18T09:00:00:Z","depth":0,"parameterNumber":2,"parameterNumberName":"U-component_of_WINDS"},"data":[0,0,0,0,0,0,0,0,0,0,0,0,0,0,0,0,0,0,0,0,0,0,0,0,0,0,0,0,0,0,0,0,0,0,0,0,0,0,0,0,0,0,0,0,0,0,0,0,0,0,0,0,0,0,0,0,0,0,-0.4726,-0.4725,0,-0.4617,-0.4615,-0.4614,-0.4562,-0.4563,-0.4563,-0.4563,-0.4446,-0.4443,-0.444,0,0,0,0,0,0,0,0,0,0,0,0,0,-0.4888,-0.4886,-0.4726,-0.4725,-0.4724,-0.4617,-0.4615,-0.4614,-0.4562,-0.4563,-0.4563,-0.4563,-0.4447,-0.4443,-0.444,0,0,0,0,0,0,0,0,0,0,0,0,0,-0.4802,-0.4885,-0.4727,-0.4685,-0.468,-0.4617,-0.4615,-0.4613,-0.4562,-0.4563,-0.4563,-0.4563,-0.4448,-0.4444,-0.4439,-0.4407,0,0,-0.4424,-0.4422,0,0,0,0,0,0,0,0,-0.4807,-0.4796,-0.4693,-0.4688,-0.4682,-0.4603,-0.463,-0.4544,-0.4562,-0.4607,-0.4563,-0.4563,-0.4498,-0.4489,-0.4468,-0.4402,-0.4397,-0.4424,-0.4421,-0.4419,-0.4418,0,0,0,0,0,0,0,-0.4813,-0.4801,-0.4683,-0.4691,-0.4685,-0.4671,-0.4659,-0.4613,-0.4553,-0.4603,-0.4599,-0.4587,-0.4495,-0.4473,-0.4465,-0.4395,-0.4424,-0.442,-0.4417,-0.4415,-0.4299,-0.4299,0,0,0,0,0,0,-0.4826,-0.4806,-0.4686,-0.468,-0.4747,-0.4668,-0.4655,-0.4629,-0.4554,-0.4542,-0.4587,-0.4585,-0.4481,-0.4471,-0.4461,-0.442,-0.4419,-0.4415,-0.4412,-0.4299,-0.4299,-0.4298,0,0,0,0,0,0,-0.483,-0.4816,-0.4691,-0.4742,-0.4725,-0.4665,-0.4636,-0.4626,-0.4604,-0.4541,-0.453,-0.4576,-0.4481,-0.4468,-0.4422,-0.4415,-0.4413,-0.4408,-0.4299,-0.4299,-0.4299,-0.4337,0,0,0,0,0,0,-0.4835,-0.4818,-0.4806,-0.4742,-0.4722,-0.4654,-0.4636,-0.4624,-0.4597,-0.4593,-0.4528,-0.4517,-0.448,-0.4429,-0.4417,-0.4408,-0.4404,-0.43,-0.4299,-0.4299,-0.4336,-0.4338,-0.4339,0,0,0,0,0,-0.4841,-0.482,-0.4805,-0.4791,-0.4706,-0.4654,-0.4643,-0.4602,-0.4596,-0.4583,-0.4543,-0.4519,-0.4418,-0.4425,-0.4411,-0.44,-0.43,-0.4299,-0.4299,-0.4335,-0.4337,-0.4339,0,0,0,0,0,0,-0.4882,-0.481,-0.4794,-0.4751,-0.471,-0.4646,-0.4628,-0.4605,-0.4563,-0.4561,-0.4511,-0.4496,-0.4455,-0.4423,-0.4432,-0.4367,-0.4357,-0.4353,-0.4389,-0.4391,-0.4392,-0.44,-0.44,0,0,0,0,0,-0.4887,-0.4852,-0.479,-0.4759,-0.4739,-0.4687,-0.4663,-0.4635,-0.4589,-0.4571,-0.4527,-0.4482,-0.4441,-0.4414,-0.4372,-0.4331,-0.4316,-0.4317,-0.4319,-0.4321,-0.4318,-0.4295,-0.4295,-0.4297,-0.4297,-0.4297,0,0,-0.4895,-0.4851,-0.4832,-0.4766,-0.473,-0.4694,-0.4672,-0.4635,-0.4607,-0.4564,-0.4519,-0.4486,-0.4433,-0.439,-0.4369,-0.4362,-0.4315,-0.432,-0.4322,-0.4318,-0.4295,-0.4295,-0.4295,-0.4296,-0.4296,-0.4296,0,0,-0.4891,-0.4855,-0.4825,-0.4791,-0.4738,-0.4704,-0.4697,-0.4637,-0.4614,-0.4568,-0.4535,-0.4502,-0.443,-0.4394,-0.4366,-0.4352,-0.4328,-0.434,-0.4349,-0.4327,-0.4327,-0.4326,-0.4322,-0.432,-0.4338,-0.4338,-0.4338,0,-0.4908,-0.4853,-0.4812,-0.4777,-0.4749,-0.4711,-0.4681,-0.4648,-0.4584,-0.4565,-0.4559,-0.447,-0.4432,-0.438,-0.4377,-0.4356,-0.4346,-0.4346,-0.433,-0.433,-0.4329,-0.4323,-0.4322,-0.4339,-0.4339,-0.4339,-0.4339,0,-0.4876,-0.4839,-0.4821,-0.4762,-0.4732,-0.47,-0.4653,-0.4628,-0.4604,-0.4571,-0.4525,-0.4478,-0.4426,-0.4412,-0.4387,-0.4357,-0.4355,-0.434,-0.4329,-0.4331,-0.4325,-0.4323,-0.4342,-0.4341,-0.4341,-0.434,0,0,-0.4894,-0.4814,-0.4808,-0.4782,-0.4722,-0.4692,-0.4658,-0.4609,-0.4588,-0.4545,-0.4515,-0.4458,-0.4444,-0.4413,-0.4384,-0.4365,-0.4357,-0.4352,-0.435,-0.4355,-0.4323,-0.4334,-0.4332,-0.4342,-0.4341,-0.4341,-0.4327,0,-0.4882,-0.482,-0.4783,-0.4736,-0.4702,-0.4666,-0.4636,-0.4596,-0.4565,-0.453,-0.4495,-0.4455,-0.444,-0.4422,-0.4401,-0.4363,-0.435,-0.4363,-0.4313,-0.4311,-0.4327,-0.4329,-0.434,-0.4329,-0.4325,-0.4324,-0.4324,0,-0.4859,-0.482,-0.477,-0.4715,-0.4699,-0.4673,-0.4626,-0.4594,-0.4548,-0.4526,-0.4493,-0.4464,-0.4427,-0.442,-0.4367,-0.4377,-0.4354,-0.4332,-0.4331,-0.4324,-0.4317,-0.4322,-0.4325,-0.4323,-0.432,-0.432,-0.432,0,-0.4877,-0.4811,-0.4773,-0.4751,-0.4686,-0.4669,-0.4641,-0.4595,-0.4569,-0.4528,-0.451,-0.4465,-0.444,-0.4405,-0.4365,-0.4364,-0.4317,-0.4306,-0.4297,-0.4298,-0.4288,-0.4289,-0.4287,-0.4274,-0.4275,-0.4275,-0.4275,0,-0.4867,-0.4838,-0.4781,-0.4757,-0.4724,-0.4682,-0.465,-0.4619,-0.4579,-0.4548,-0.4514,-0.4486,-0.4435,-0.4401,-0.4369,-0.433,-0.4319,-0.43,-0.4292,-0.4303,-0.4306,-0.4287,-0.4286,-0.4274,-0.4274,-0.4274,-0.4274,0,-0.4881,-0.4842,-0.4798,-0.4741,-0.4726,-0.4704,-0.4655,-0.4631,-0.4599,-0.4561,-0.4549,-0.4498,-0.4456,-0.4413,-0.4356,-0.4335,-0.4297,-0.4286,-0.4313,-0.4309,-0.4302,-0.4304,-0.4288,-0.4284,-0.4275,-0.4275,-0.4275,0,-0.4877,-0.4854,-0.4796,-0.4774,-0.4747,-0.4712,-0.4686,-0.4644,-0.4618,-0.4565,-0.4547,-0.4503,-0.4466,-0.44,-0.4358,-0.4314,-0.4301,-0.4299,-0.4294,-0.4307,-0.4301,-0.4303,-0.4301,-0.43,-0.43,-0.4301,-0.4301,0,-0.4875,-0.4857,-0.4821,-0.4778,-0.4749,-0.4713,-0.4675,-0.4659,-0.461,-0.4583,-0.454,-0.4512,-0.4455,-0.4411,-0.4363,-0.4333,-0.4309,-0.4303,-0.4299,-0.4309,-0.4326,-0.4317,-0.4318,-0.4303,-0.4303,-0.4303,-0.4303,-0.4303,-0.4879,-0.4858,-0.4814,-0.4775,-0.4743,-0.471,-0.4685,-0.4651,-0.4615,-0.4567,-0.4544,-0.4502,-0.4457,-0.4391,-0.4362,-0.4328,-0.4321,-0.4314,-0.4313,-0.4312,-0.4315,-0.4333,-0.4319,-0.4319,-0.4318,-0.4318,-0.4318,0,-0.4875,-0.4845,-0.4811,-0.4761,-0.4731,-0.4713,-0.4671,-0.4647,-0.4611,-0.4572,-0.4537,-0.4489,-0.4447,-0.4403,-0.4358,-0.434,-0.4328,-0.433,-0.433,-0.4324,-0.4323,-0.4331,-0.434,-0.434,-0.434,-0.434,-0.434,-0.434,-0.4869,-0.4832,-0.4809,-0.4757,-0.4727,-0.4687,-0.4665,-0.4634,-0.4603,-0.4551,-0.4517,-0.4489,-0.4448,-0.4401,-0.4362,-0.435,-0.4335,-0.4341,-0.4325,-0.4325,-0.4324,-0.4322,-0.433,-0.4338,-0.4338,-0.4329,-0.4329,-0.4329]},{"header":{"parameterUnit":"m.s-1","parameterCategory":1,"la1":30.2991,"la2":30.254,"lo1":-89.0895,"lo2":-89.0444,"dy":0.0017,"dx":0.0017,"nx":28,"ny":28,"refTime":"2023-07-18T09:00:00:Z","depth":0,"parameterNumber":3,"parameterNumberName":"V-component_of_WINDS"},"data":[0,0,0,0,0,0,0,0,0,0,0,0,0,0,0,0,0,0,0,0,0,0,0,0,0,0,0,0,0,0,0,0,0,0,0,0,0,0,0,0,0,0,0,0,0,0,0,0,0,0,0,0,0,0,0,0,0,0,3.7496,3.7496,0,3.7464,3.7464,3.7463,3.7462,3.7463,3.7463,3.7464,3.7426,3.7425,3.7423,0,0,0,0,0,0,0,0,0,0,0,0,0,3.7551,3.755,3.7496,3.7496,3.7495,3.7464,3.7464,3.7463,3.7462,3.7463,3.7463,3.7464,3.7427,3.7425,3.7423,0,0,0,0,0,0,0,0,0,0,0,0,0,3.7524,3.755,3.7496,3.7491,3.749,3.7464,3.7464,3.7463,3.7462,3.7463,3.7464,3.7464,3.7427,3.7425,3.7423,3.7398,0,0,3.7417,3.7416,0,0,0,0,0,0,0,0,3.7525,3.7522,3.7492,3.7491,3.7491,3.7468,3.7469,3.7441,3.7462,3.7473,3.7464,3.7464,3.7439,3.7436,3.7429,3.7396,3.7395,3.7416,3.7415,3.7414,3.7414,0,0,0,0,0,0,0,3.7527,3.7523,3.7483,3.7492,3.7491,3.7489,3.7486,3.7464,3.7453,3.7472,3.7472,3.7468,3.7439,3.7431,3.7428,3.7394,3.7417,3.7415,3.7413,3.7413,3.7338,3.7337,0,0,0,0,0,0,3.7531,3.7525,3.7484,3.7482,3.751,3.7487,3.7484,3.7475,3.7453,3.7451,3.7468,3.7468,3.7434,3.743,3.7426,3.7395,3.7414,3.7412,3.7411,3.7338,3.7337,3.7337,0,0,0,0,0,0,3.7532,3.7527,3.7486,3.7504,3.7498,3.7486,3.7475,3.7474,3.7466,3.745,3.7448,3.7462,3.7434,3.7429,3.7405,3.7393,3.7411,3.741,3.7339,3.7338,3.7337,3.7332,0,0,0,0,0,0,3.7534,3.7528,3.7519,3.7503,3.7497,3.7466,3.7475,3.7473,3.7463,3.7463,3.7444,3.7441,3.7434,3.7408,3.7403,3.7391,3.7408,3.734,3.7339,3.7337,3.7333,3.7331,3.7329,0,0,0,0,0,3.7536,3.7519,3.7519,3.7514,3.7487,3.7466,3.7462,3.7456,3.7462,3.7452,3.7442,3.7442,3.7396,3.7406,3.74,3.7387,3.7341,3.7339,3.7338,3.7334,3.7331,3.7329,0,0,0,0,0,0,3.7532,3.7516,3.7517,3.7494,3.7482,3.7466,3.7454,3.7453,3.7437,3.7438,3.743,3.7425,3.7401,3.7391,3.7403,3.7361,3.7369,3.7366,3.7368,3.7365,3.7363,3.7366,3.7406,0,0,0,0,0,3.7529,3.7515,3.7501,3.7482,3.7476,3.7466,3.7457,3.7453,3.7439,3.7433,3.7421,3.7406,3.7388,3.7376,3.7359,3.7332,3.7327,3.732,3.7318,3.7316,3.7313,3.7297,3.7293,3.7331,3.7331,3.7331,0,0,3.7522,3.7511,3.7503,3.7481,3.7471,3.7455,3.7461,3.7444,3.7432,3.743,3.7406,3.7397,3.7379,3.7353,3.7341,3.7345,3.7302,3.7314,3.7313,3.7311,3.7295,3.7291,3.7288,3.733,3.733,3.733,0,0,3.75,3.7492,3.7475,3.7465,3.7449,3.7443,3.7439,3.7423,3.7417,3.7393,3.7391,3.7375,3.7345,3.7332,3.7321,3.7294,3.7293,3.7289,3.7277,3.7261,3.7258,3.7256,3.7245,3.7241,3.7286,3.7286,3.7286,0,3.7493,3.747,3.7466,3.7449,3.7439,3.7438,3.7419,3.7409,3.7388,3.738,3.7385,3.7346,3.7334,3.7304,3.7298,3.729,3.7283,3.7291,3.7259,3.7257,3.7254,3.7243,3.724,3.7286,3.7286,3.7286,3.7286,0,3.7461,3.7445,3.7433,3.7415,3.7403,3.7385,3.7377,3.7365,3.7362,3.7354,3.733,3.7315,3.7294,3.7287,3.7284,3.7256,3.7259,3.7262,3.7269,3.725,3.724,3.7236,3.7285,3.7285,3.7285,3.7285,0,0,3.7437,3.7416,3.7412,3.7403,3.7385,3.7372,3.7353,3.7335,3.7324,3.731,3.7293,3.7266,3.7269,3.7257,3.7251,3.7238,3.7215,3.7242,3.7241,3.7236,3.7183,3.7181,3.7176,3.7215,3.7214,3.7213,3.7184,0,3.7413,3.7382,3.7377,3.7349,3.7333,3.7331,3.7315,3.7301,3.7293,3.7277,3.7268,3.7249,3.7254,3.7246,3.7233,3.7221,3.7204,3.7223,3.7197,3.7196,3.7201,3.7171,3.7169,3.7142,3.718,3.7179,3.7179,0,3.7381,3.7367,3.7338,3.7322,3.7315,3.7301,3.7282,3.7268,3.7251,3.7246,3.7233,3.7229,3.7208,3.7217,3.7186,3.7199,3.7187,3.718,3.7179,3.7175,3.7186,3.7166,3.7133,3.7129,3.7173,3.7173,3.7174,0,3.7365,3.7339,3.7317,3.731,3.7291,3.7281,3.7272,3.7257,3.7245,3.7229,3.7221,3.7201,3.719,3.7174,3.7164,3.7172,3.7134,3.7142,3.7127,3.7128,3.7119,3.712,3.7083,3.7113,3.7113,3.7113,3.7113,0,3.7339,3.7321,3.731,3.7297,3.7276,3.7269,3.7248,3.7239,3.7226,3.7209,3.7206,3.719,3.7179,3.7161,3.7153,3.7128,3.7123,3.7117,3.7115,3.7117,3.7118,3.7109,3.711,3.7112,3.7112,3.7113,3.7113,0,3.7317,3.731,3.7286,3.7271,3.7266,3.7251,3.7237,3.7223,3.7215,3.7194,3.7188,3.7175,3.7154,3.7143,3.7116,3.711,3.7081,3.7081,3.7087,3.7086,3.7072,3.7073,3.7028,3.7021,3.7056,3.7056,3.7056,0,3.7301,3.7287,3.727,3.7259,3.7251,3.7234,3.7223,3.7215,3.7203,3.7183,3.7171,3.715,3.7133,3.7098,3.7085,3.7064,3.7062,3.7048,3.7059,3.7061,3.706,3.7061,3.7059,3.7045,3.7045,3.7045,3.7045,0,3.7272,3.7268,3.7253,3.7236,3.7223,3.7209,3.7194,3.7186,3.7175,3.7161,3.7141,3.7127,3.71,3.7078,3.7056,3.7045,3.7042,3.7041,3.7037,3.7038,3.7042,3.7039,3.7081,3.7042,3.7042,3.7043,3.7043,3.7043,3.7251,3.7239,3.7225,3.7207,3.7196,3.7183,3.7169,3.7159,3.7142,3.7121,3.7116,3.7094,3.7076,3.7046,3.7034,3.7015,3.7018,3.7011,3.7009,3.7008,3.7007,3.7046,3.7011,3.7011,3.7011,3.7011,3.7011,0,3.7221,3.7212,3.7196,3.7177,3.7163,3.7164,3.7148,3.7135,3.7116,3.7101,3.7084,3.7059,3.7038,3.7022,3.7,3.6988,3.6986,3.6982,3.6982,3.6979,3.7006,3.7012,3.6984,3.6984,3.6984,3.6984,3.6984,3.6984,3.7204,3.7182,3.7177,3.7149,3.714,3.7119,3.7109,3.7096,3.7084,3.7057,3.704,3.7031,3.7015,3.6991,3.6971,3.6967,3.6958,3.6955,3.695,3.6975,3.6978,3.6981,3.6986,3.6953,3.6953,3.6925,3.6925,3.6925]}]]